[[{"header":{"parameterUnit":"m.s-1","parameterCategory":1,"la1":30.2992,"la2":30.254,"lo1":-89.0895,"lo2":-89.0443,"dy":0.0025,"dx":0.0025,"nx":19,"ny":19,"refTime":"2026-05-20T09:00:00:Z","depth":0,"parameterNumber":2,"parameterNumberName":"U-component_of_WINDS"},"data":[0,0,0,-1.7753,-1.7755,-1.7891,-1.7892,-1.8053,-1.8054,0,0,0,0,0,0,0,0,0,0,0,-1.7702,-1.7703,-1.7752,-1.7755,-1.7891,-1.7892,-1.8052,-1.8054,0,0,0,0,0,0,0,0,0,0,0,-1.7702,-1.7702,-1.7703,-1.7756,-1.7891,-1.7892,-1.8052,-1.7955,0,0,0,0,0,0,0,0,0,0,-1.7825,-1.7768,-1.7702,-1.7703,-1.7757,-1.7891,-1.7892,-1.795,-1.7961,-1.7985,0,-1.8001,0,-1.803,-1.8064,-1.8064,0,0,0,-1.7764,-1.7759,-1.7805,-1.7703,-1.7758,-1.7891,-1.7832,-1.7956,-1.7968,-1.7998,-1.8003,-1.801,-1.8032,-1.8064,-1.8065,-1.8169,-1.8169,0,0,-1.7756,-1.7722,-1.7796,-1.7812,-1.7787,-1.7828,-1.7836,-1.7964,-1.7968,-1.8004,-1.8014,-1.8035,-1.8065,-1.8067,-1.8169,-1.8169,0,0,0,-1.7729,-1.7716,-1.7759,-1.7805,-1.783,-1.7832,-1.7842,-1.7962,-1.7979,-1.8016,-1.8037,-1.8066,-1.8068,-1.8169,-1.8169,-1.8138,0,0,0,-1.7725,-1.77,-1.7755,-1.7735,-1.7827,-1.7897,-1.7837,-1.797,-1.7986,-1.8036,-1.8066,-1.8069,-1.8169,-1.8169,-1.8139,-1.813,0,0,0,-1.7697,-1.7697,-1.7713,-1.7733,-1.779,-1.7896,-1.7921,-1.7974,-1.7998,-1.8064,-1.807,-1.8168,-1.8169,-1.8139,-1.8131,-1.8146,0,0,0,-1.7657,-1.7685,-1.7712,-1.7751,-1.7788,-1.7875,-1.792,-1.7987,-1.804,-1.8067,-1.8169,-1.8169,-1.8139,-1.8131,-1.8146,-1.8152,-1.8151,0,0,-1.7673,-1.7686,-1.7712,-1.774,-1.7812,-1.7857,-1.7927,-1.801,-1.805,-1.8127,-1.813,-1.8138,-1.8131,-1.8146,-1.8159,-1.8158,0,0,0,-1.7705,-1.7723,-1.775,-1.7798,-1.786,-1.7913,-1.7989,-1.802,-1.8087,-1.8081,-1.815,-1.8146,-1.8157,-1.8161,-1.816,-1.8171,-1.8169,-1.8169,-1.8169,-1.7678,-1.7725,-1.7771,-1.7834,-1.788,-1.7957,-1.7999,-1.8055,-1.809,-1.8106,-1.8129,-1.813,-1.8134,-1.8134,-1.8145,-1.8136,-1.8136,-1.8136,-1.8136,-1.7705,-1.7738,-1.7783,-1.7844,-1.7895,-1.7948,-1.8023,-1.8047,-1.8104,-1.8117,-1.8129,-1.8138,-1.8131,-1.8143,-1.8134,-1.8134,-1.8135,-1.8135,-1.8135,-1.7692,-1.7716,-1.7752,-1.7825,-1.7876,-1.7941,-1.7993,-1.8038,-1.8081,-1.8093,-1.8122,-1.8123,-1.8129,-1.8104,-1.8104,-1.8104,-1.8104,-1.8104,-1.8104,-1.7664,-1.7705,-1.7743,-1.781,-1.7847,-1.79,-1.7978,-1.8016,-1.807,-1.8099,-1.8099,-1.8133,-1.8121,-1.8117,-1.8104,-1.8104,-1.8104,-1.8104,-1.8104,-1.7674,-1.7679,-1.7736,-1.7772,-1.7856,-1.7904,-1.796,-1.8033,-1.8071,-1.8096,-1.8128,-1.8112,-1.8129,-1.813,-1.8127,-1.8117,-1.8117,-1.8117,-1.8117,-1.7663,-1.7675,-1.7743,-1.7798,-1.7857,-1.7913,-1.7979,-1.804,-1.8105,-1.8131,-1.814,-1.8139,-1.8138,-1.8156,-1.8157,-1.8154,-1.8152,-1.8152,-1.8152,-1.7671,-1.7691,-1.7737,-1.7797,-1.7866,-1.7924,-1.7987,-1.805,-1.8125,-1.8155,-1.8153,-1.8152,-1.8152,-1.815,-1.8179,-1.8179,-1.8176,0,0]},{"header":{"parameterUnit":"m.s-1","parameterCategory":1,"la1":30.2992,"la2":30.254,"lo1":-89.0895,"lo2":-89.0443,"dy":0.0025,"dx":0.0025,"nx":19,"ny":19,"refTime":"2026-05-20T09:00:00:Z","depth":0,"parameterNumber":3,"parameterNumberName":"V-component_of_WINDS"},"data":[0,0,0,5.1611,5.1614,5.1737,5.1738,5.1901,5.1903,0,0,0,0,0,0,0,0,0,0,0,5.1581,5.1583,5.1611,5.1614,5.1737,5.1738,5.1901,5.1903,0,0,0,0,0,0,0,0,0,0,0,5.1581,5.1582,5.1584,5.1615,5.1737,5.1738,5.19,5.1805,0,0,0,0,0,0,0,0,0,0,5.1684,5.1663,5.1582,5.1584,5.1616,5.1737,5.1738,5.18,5.1811,5.1849,0,5.1887,0,5.1898,5.1914,5.1915,0,0,0,5.1609,5.1655,5.1682,5.1584,5.1617,5.1737,5.168,5.1806,5.1818,5.1863,5.1889,5.1895,5.1901,5.1915,5.1916,5.2164,5.2165,0,0,5.1602,5.1606,5.1674,5.1691,5.1675,5.1676,5.1684,5.1813,5.1841,5.189,5.1899,5.1903,5.1917,5.1918,5.2162,5.2164,0,0,0,5.1586,5.1602,5.1626,5.1684,5.1706,5.168,5.1689,5.1835,5.1843,5.1901,5.1905,5.1918,5.192,5.2161,5.2163,5.2239,0,0,0,5.1582,5.1593,5.1623,5.1627,5.1704,5.1773,5.1708,5.1834,5.1848,5.1904,5.1918,5.1921,5.2159,5.2162,5.2234,5.2274,0,0,0,5.1571,5.1591,5.1612,5.1627,5.1681,5.177,5.1785,5.1837,5.1851,5.1915,5.1922,5.2158,5.2161,5.2229,5.2266,5.2342,0,0,0,5.156,5.1675,5.1613,5.1743,5.168,5.1818,5.1784,5.1886,5.195,5.1918,5.2159,5.2163,5.2227,5.2261,5.2337,5.2407,5.2437,0,0,5.1708,5.1693,5.177,5.1718,5.1868,5.1798,5.1959,5.2012,5.2012,5.2112,5.2118,5.2236,5.2266,5.2341,5.2601,5.2624,0,0,0,5.1818,5.1873,5.1912,5.1975,5.202,5.2062,5.209,5.2109,5.2195,5.2065,5.2283,5.2301,5.2344,5.2378,5.2398,5.2436,5.2178,5.2178,5.2178,5.2032,5.203,5.2157,5.2169,5.223,5.226,5.2308,5.2339,5.2315,5.2367,5.2397,5.2555,5.2595,5.261,5.2649,5.2433,5.2434,5.2434,5.2434,5.2249,5.2327,5.2297,5.241,5.2405,5.2498,5.2531,5.2512,5.2597,5.2532,5.257,5.25,5.2636,5.267,5.244,5.2439,5.2438,5.2438,5.2437,5.239,5.2427,5.2451,5.2543,5.2614,5.2621,5.2706,5.2698,5.269,5.2728,5.276,5.2759,5.2757,5.2744,5.2745,5.2745,5.2746,5.2746,5.2746,5.2527,5.2552,5.2625,5.2685,5.2725,5.2777,5.2808,5.2847,5.2887,5.2874,5.2874,5.2847,5.265,5.2601,5.2755,5.2753,5.2752,5.2752,5.2751,5.2749,5.2698,5.2812,5.2853,5.2922,5.2994,5.2983,5.3063,5.3093,5.3135,5.31,5.2955,5.2939,5.2923,5.2882,5.31,5.31,5.31,5.31,5.2868,5.286,5.2976,5.3042,5.3105,5.3108,5.3236,5.3262,5.3279,5.3298,5.3265,5.321,5.3194,5.3187,5.3166,5.3128,5.3403,5.3403,5.3403,5.3005,5.3003,5.3114,5.3134,5.3189,5.3235,5.3355,5.3431,5.3439,5.3415,5.3312,5.3299,5.3211,5.3183,5.3156,5.3122,5.3053,0,0]}]]